Change the Weather History Date:

Monday, May 12, 2014

  Actual Average (KFWN) Record (KFWN)
Temperature  
Mean Temperature 68 °F -  
Max Temperature 84 °F 69 °F 88 °F (1964)
Min Temperature 51 °F 43 °F 29 °F (1969)
Cooling Degree Days 2    
Growing Degree Days 18 (Base 50)    
Moisture  
Dew Point 53 °F    
Average Humidity 65    
Maximum Humidity 96    
Minimum Humidity 31    
Precipitation  
Precipitation 0.00 in - - ()
Sea Level Pressure  
Sea Level Pressure 30.07 in    
Wind  
Wind Speed 1 mph (SW)    
Max Wind Speed 9 mph    
Max Gust Speed -    
Averages and records for this station are not official NWS values.
T = Trace of Precipitation, MM = Missing Value Source: NWS Daily Summary

Daily Weather History Graph

Daily Weather History Graph

Search for Another Location

Airport or City:

Trip Planner

Search our weather history database for the weather conditions in past years. The results will help you decide how hot, cold, wet, or windy it might be!

Date:

Astronomy

May. 12, 2014 Rise Set
Actual Time 5:44 AM EDT 8:07 PM EDT
Civil Twilight 5:13 AM EDT 8:38 PM EDT
Nautical Twilight 4:34 AM EDT 9:16 PM EDT
Astronomical Twilight 3:52 AM EDT 9:59 PM EDT
Moon 6:01 PM EDT (5/12) 4:23 AM EDT (5/12)
Length of Visible Light 15h 24m
Length of Day
14h 22m
Waxing Gibbous, 95% of the Moon is Illuminated
May 12
Waxing Gibbous
May 14
Full
May 21
Last Quarter
May 28
New
Jun 5
First Quarter

Hourly Weather History & Observations

Time (EDT) Temp. Dew Point Humidity Pressure Visibility Wind Dir Wind Speed Gust Speed Precip Events Conditions
12:54 AM 54.0 °F 50.0 °F 86% 30.09 in - Calm Calm - N/A   Unknown
1:54 AM 53.1 °F 51.1 °F 93% 30.09 in - Calm Calm - N/A   Unknown
2:54 AM 53.1 °F 50.0 °F 89% 30.09 in - Calm Calm - N/A   Unknown
3:54 AM 51.1 °F 50.0 °F 96% 30.10 in - Calm Calm - N/A   Unknown
4:54 AM 52.0 °F 50.0 °F 93% 30.09 in - Calm Calm - N/A   Unknown
5:54 AM 51.1 °F 50.0 °F 96% 30.10 in - Calm Calm - N/A   Unknown
6:54 AM 54.0 °F 52.0 °F 93% 30.11 in - Calm Calm - N/A   Unknown
7:54 AM 62.1 °F 52.0 °F 70% 30.12 in - Calm Calm - N/A   Unknown
8:54 AM 69.1 °F 51.1 °F 53% 30.12 in - Calm Calm - N/A   Unknown
10:54 AM 77.0 °F 51.1 °F 40% 30.10 in - Calm Calm - N/A   Unknown
11:54 AM 79.0 °F 50.0 °F 36% 30.10 in - Calm Calm - N/A   Unknown
12:54 PM 80.1 °F 46.9 °F 31% 30.08 in - SW 4.6 mph - N/A   Unknown
1:54 PM 84.0 °F 50.0 °F 31% 30.06 in - Variable 4.6 mph - N/A   Unknown
2:54 PM 82.9 °F 51.1 °F 33% 30.05 in - SSW 9.2 mph - N/A   Unknown
3:54 PM 80.1 °F 52.0 °F 38% 30.04 in - SSW 6.9 mph - N/A   Unknown
4:54 PM 78.1 °F 54.0 °F 43% 30.03 in - Calm Calm - N/A   Unknown
5:54 PM 78.1 °F 53.1 °F 42% 30.05 in - Variable 6.9 mph - N/A   Unknown
6:54 PM 77.0 °F 54.0 °F 45% 30.04 in - Variable 3.5 mph - N/A   Unknown
7:54 PM 73.0 °F 55.9 °F 55% 30.04 in - Calm Calm - N/A   Unknown
8:54 PM 69.1 °F 60.1 °F 73% 30.05 in - Calm Calm - N/A   Unknown
9:54 PM 64.9 °F 59.0 °F 81% 30.05 in - Calm Calm - N/A   Unknown
10:54 PM 63.0 °F 60.1 °F 90% 30.05 in - Calm Calm - N/A   Unknown
11:54 PM 61.0 °F 59.0 °F 93% 30.05 in - Calm Calm - N/A   Unknown